SCP
1 1 0 0 0 0 0 1 1 1 1 1 1 1 1 1 1 1 1 1 1 1 1 1 1 1 1 1 1 1 1 1 1 1 1 1 1 1 1 1 1 1 1
1 1 0 1 0 0 0 0 1 1 1 1 1 1 1 1 1 1 1 1 1 1 1 1 1 1 1 1 1 1 1 1 1 1 1 1 1 1 1 1 1 1 1
1 1 1 1 1 0 0 0 1 1 1 1 1 0 0 0 1 1 1 1 1 1 1 1 1 1 1 1 1 1 1 1 1 1 1 1 1 1 1 1 1 1 1
1 1 1 1 1 1 0 1 1 1 1 1 1 0 0 0 0 0 0 1 1 1 1 1 1 1 1 1 1 1 1 2 1 1 1 1 1 1 1 1 1 1 1
1 1 1 1 1 1 1 1 1 1 1 1 0 0 0 0 0 0 0 0 0 0 1 1 1 1 1 1 1 1 1 2 2 1 1 1 1 1 1 1 1 1 1
1 1 1 1 1 1 1 1 1 1 1 1 0 0 0 0 0 0 0 0 0 0 1 1 1 1 1 1 1 1 1 2 2 1 1 1 1 1 1 1 1 1 1
1 1 1 1 1 1 1 1 1 1 1 1 1 1 0 0 0 0 0 0 1 1 1 1 1 1 1 1 1 1 1 1 1 1 1 1 1 1 1 1 1 1 1
1 1 2 2 2 1 1 1 1 1 1 1 1 1 0 0 0 0 0 0 0 1 1 1 1 1 1 1 1 1 1 1 1 1 1 1 1 1 1 1 1 1 1
1 2 2 2 2 2 1 1 1 1 1 1 1 1 0 0 0 0 0 0 0 0 0 1 1 1 1 1 1 1 1 1 1 1 1 1 1 1 1 1 1 1 1
1 2 2 2 2 2 2 1 1 1 1 1 1 1 0 0 0 0 0 0 0 0 0 0 1 1 1 1 1 0 0 0 1 1 1 1 1 1 1 1 1 1 1
1 1 2 2 2 2 2 1 1 1 1 1 1 1 0 0 0 0 0 0 0 0 0 0 0 0 0 0 0 0 0 0 0 0 1 1 1 1 1 1 1 1 1
1 1 1 2 2 2 2 1 1 1 1 1 1 0 0 0 0 0 0 0 0 0 0 0 0 0 0 0 0 0 0 0 0 0 0 0 1 1 1 1 1 1 1
0 1 1 1 2 2 2 2 1 1 1 0 0 0 0 0 0 0 0 0 0 0 0 0 0 0 0 0 0 0 0 0 0 0 0 0 1 1 1 1 1 1 1
0 0 1 1 1 2 2 2 2 1 1 0 0 0 0 0 0 0 0 0 0 0 0 0 0 0 0 0 0 0 0 0 0 0 0 0 1 1 1 0 0 1 1
0 0 0 1 1 1 2 2 2 1 1 0 0 0 0 0 0 0 0 0 0 0 0 0 0 0 0 0 0 0 0 0 0 0 0 0 0 0 0 0 0 0 0
0 0 0 0 1 1 1 1 2 2 1 1 0 0 0 0 0 0 0 0 0 0 0 0 0 0 0 0 0 0 0 0 0 0 0 0 0 0 0 0 0 0 0
0 0 0 0 0 0 0 1 1 1 1 1 1 0 0 0 0 0 0 0 0 0 0 0 0 0 0 0 0 0 0 0 0 0 0 0 0 0 0 0 0 0 0
0 0 0 0 0 0 0 0 0 1 1 1 1 0 0 0 0 0 0 0 0 0 0 0 0 0 0 0 0 0 0 0 0 0 0 0 0 0 0 0 0 0 0
0 0 0 0 0 0 0 0 0 0 0 1 1 1 0 0 0 0 0 0 0 0 0 0 0 0 0 0 0 0 0 0 0 0 0 0 0 0 0 0 0 0 0
0 0 0 0 0 0 0 0 0 0 0 0 0 0 0 0 0 0 0 0 0 0 0 0 0 0 0 0 0 0 0 0 0 0 0 0 0 0 0 0 0 0 0
0 0 0 0 0 0 0 0 0 0 0 0 0 0 0 0 0 0 0 0 0 0 0 0 0 0 0 0 0 0 0 0 0 0 0 0 0 0 0 0 0 0 0
0 0 0 0 0 0 0 0 0 0 0 0 0 0 0 0 0 0 0 0 0 0 0 0 0 0 0 0 0 0 0 0 0 0 0 0 0 0 0 0 0 0 0
0 0 0 0 0 0 0 0 0 0 0 0 0 0 0 0 0 0 0 0 0 0 0 0 0 0 0 0 0 0 0 0 0 0 0 0 0 0 0 0 0 0 0
0 0 0 0 0 0 0 0 0 0 0 0 0 0 0 0 0 0 0 0 0 0 0 0 0 0 0 0 0 0 0 0 0 0 0 0 0 0 0 0 0 0 0
0 0 0 0 0 0 0 0 0 0 0 0 0 0 0 0 0 0 0 0 0 0 0 0 0 0 0 0 0 0 0 0 0 0 0 0 0 0 0 0 0 0 0
0 0 0 0 0 0 0 0 0 0 0 0 0 0 0 0 0 0 0 0 0 0 0 0 0 0 0 0 0 0 0 0 0 0 0 0 0 0 0 0 0 0 0
Wind_Speed
0 0 0 1 1 0 0 0 1 1 2 2 2 2 2 2 2 2 2 5 6 7 8 8 9 9 10 10 11 11 10 10 10 10 10 9 9 9 9 9 8 8 7
1 0 0 1 1 1 1 1 1 1 1 1 1 2 2 2 2 2 2 3 5 6 6 6 8 9 9 9 10 10 10 10 10 10 10 9 9 9 9 9 8 8 8
1 1 0 0 1 1 1 1 1 1 0 1 1 1 1 1 1 1 1 1 2 3 4 4 5 6 8 9 9 10 10 10 10 10 10 10 9 9 9 9 9 8 8
1 1 1 1 1 1 1 1 1 1 1 1 1 1 1 1 2 1 1 1 2 2 2 3 3 4 5 6 7 9 9 10 10 10 10 10 10 9 8 8 8 8 8
3 2 1 1 1 1 1 1 1 0 1 1 1 2 2 1 2 2 2 2 2 2 2 2 3 3 4 5 6 6 8 9 10 10 10 10 10 9 9 8 8 7 8
4 2 2 2 2 2 2 1 1 1 0 1 1 2 2 2 2 3 2 2 2 2 2 2 2 2 2 4 5 6 7 8 9 10 11 10 10 9 8 8 8 8 8
4 3 2 3 2 2 1 1 0 0 0 1 1 1 2 2 3 2 2 2 2 2 2 2 2 2 2 2 2 2 5 7 9 10 10 10 10 10 9 8 8 8 8
4 3 3 3 3 2 2 2 1 0 0 0 1 1 1 2 2 3 2 2 3 2 3 3 3 3 2 1 2 1 2 4 5 6 8 9 9 9 9 8 8 7 7
4 4 4 3 3 2 2 2 1 0 1 1 0 1 1 1 1 2 2 2 3 2 2 3 3 3 3 3 2 4 5 4 5 6 6 7 9 9 10 9 9 8 8
5 5 4 4 3 2 2 2 1 1 0 1 1 0 0 1 1 0 1 2 3 2 2 2 3 3 3 3 4 6 7 6 5 6 6 6 7 8 9 9 8 8 8
5 5 4 3 3 2 2 3 2 2 0 1 1 0 0 1 0 1 1 1 2 2 2 1 2 2 2 2 2 4 6 6 6 5 5 5 5 6 7 8 7 7 7
4 5 4 4 3 3 3 3 2 2 1 1 0 1 1 1 1 1 1 1 1 1 1 1 1 1 2 2 2 5 5 6 5 5 5 5 5 5 6 6 6 6 7
3 5 5 4 3 3 3 3 2 2 2 1 1 1 1 1 1 1 1 1 0 1 1 1 1 1 1 1 1 4 4 6 6 5 4 4 4 5 5 6 6 6 6
3 4 4 4 4 4 4 3 2 2 2 2 1 1 0 0 1 1 2 2 1 0 1 1 1 1 1 1 2 3 3 5 5 5 4 4 4 4 5 5 5 5 5
3 5 5 5 5 5 4 3 2 3 3 2 2 1 1 0 0 1 1 2 2 1 0 0 0 1 1 1 1 1 2 4 4 4 3 3 3 4 4 5 5 5 4
4 5 5 5 5 5 5 4 3 3 3 2 1 2 2 1 1 1 1 1 1 2 1 0 0 1 1 1 2 2 2 3 3 3 3 3 3 3 4 4 4 4 4
4 5 5 5 5 5 5 4 3 3 3 3 3 2 2 2 1 1 1 1 1 1 2 0 1 1 1 2 2 2 1 1 1 2 2 2 3 3 3 4 4 4 4
4 4 4 5 5 5 5 4 4 4 4 4 3 3 3 2 2 1 1 1 1 1 3 2 1 1 1 1 2 2 1 1 1 2 2 2 2 3 3 3 3 3 3
4 5 5 5 5 5 5 4 4 4 4 4 3 3 2 2 2 1 1 1 1 2 2 3 1 1 1 1 2 2 2 1 1 1 1 2 2 2 2 2 2 3 3
4 5 5 5 5 5 5 5 4 4 4 4 4 3 3 2 1 1 1 1 2 2 3 3 2 2 1 1 2 1 1 1 1 1 2 1 1 1 2 3 3 3 4
5 4 5 6 6 4 4 5 4 4 4 4 4 4 4 3 3 1 0 1 2 2 3 3 2 2 1 1 1 1 1 1 1 1 1 1 0 0 1 2 3 4 4
4 5 6 6 6 5 7 7 4 3 4 4 5 5 4 5 5 5 3 3 3 4 3 2 2 2 2 2 2 1 1 1 1 1 0 1 0 1 1 2 3 4 4
4 5 5 5 6 7 8 7 6 4 4 4 4 4 4 5 6 4 5 6 5 4 3 3 4 3 3 2 2 2 1 1 0 0 0 1 0 1 2 2 4 4 5
3 3 4 5 5 7 9 8 7 5 5 5 5 4 4 5 5 5 5 5 5 4 3 2 3 2 2 2 2 2 2 1 1 0 1 1 1 1 2 2 3 4 5
3 3 4 5 5 6 9 8 6 4 5 6 6 6 5 5 7 6 6 5 5 5 5 5 3 2 2 3 4 3 2 1 0 1 1 1 1 1 2 2 3 5 6
2 3 4 4 4 5 8 8 6 3 4 4 5 5 7 7 7 7 5 4 5 4 4 4 4 4 2 1 3 3 3 2 1 1 2 2 1 1 2 2 2 3 4
Wind_Direction
108 35 2 4 353 5 344 313 317 318 316 314 301 280 261 254 256 254 255 251 246 237 234 226 220 219 219 217 213 209 203 201 195 189 184 179 177 177 172 165 161 158 156
96 61 36 10 340 333 321 317 318 304 292 306 322 308 287 275 263 262 261 266 262 246 236 237 236 232 230 224 220 214 207 204 197 189 183 180 177 172 168 167 165 162 159
62 60 47 9 320 333 346 2 350 354 319 351 335 324 320 328 327 312 308 298 288 271 256 256 246 245 240 231 225 218 209 197 190 186 183 180 174 171 169 169 169 164 162
29 52 31 340 335 2 22 14 356 4 349 343 328 329 354 347 346 340 357 333 321 311 293 278 262 252 246 236 226 217 209 197 189 187 184 177 169 166 166 166 166 167 168
27 52 24 354 3 25 22 354 23 48 333 344 335 350 2 5 1 20 37 20 9 353 336 322 298 276 261 246 239 227 215 198 188 183 180 176 169 166 166 164 164 168 167
25 33 33 19 25 37 20 9 11 28 288 0 11 17 9 16 31 36 30 26 22 21 10 6 345 324 307 273 251 235 225 203 187 181 177 172 166 163 164 164 163 162 161
24 34 27 23 25 35 13 359 16 18 355 50 66 20 7 24 39 36 21 27 25 17 20 17 15 6 345 329 302 255 231 210 196 180 172 167 164 164 165 166 164 161 156
20 27 30 22 14 14 13 3 360 294 306 93 109 110 336 349 8 22 18 23 21 26 26 22 23 23 16 7 5 50 193 172 167 163 162 161 163 164 165 165 164 159 156
20 21 21 24 15 17 3 349 335 279 240 234 131 161 175 224 306 0 13 14 16 26 22 22 29 28 30 30 32 56 76 100 131 140 145 155 162 167 166 166 165 164 162
15 18 17 19 21 18 7 345 350 310 209 234 253 4 108 161 172 309 350 5 15 25 27 33 38 36 36 37 54 68 73 82 102 119 137 151 160 164 164 162 162 162 165
9 11 13 12 9 8 5 1 357 347 321 236 219 171 92 47 114 181 254 336 357 4 15 24 40 37 36 40 55 72 72 79 88 102 114 135 147 157 157 161 162 164 165
1 3 3 5 4 2 359 353 358 359 343 310 276 175 166 173 190 182 200 230 312 336 358 18 35 34 29 34 69 79 81 84 84 94 109 117 126 142 149 159 165 168 170
356 350 356 355 358 357 357 354 10 1 349 346 309 265 219 214 183 172 166 186 251 337 359 15 14 23 41 36 71 90 93 89 85 85 96 106 122 137 147 159 161 164 163
342 346 357 359 359 1 4 7 12 355 357 355 357 342 6 250 183 173 171 167 152 20 19 342 4 20 32 34 76 77 103 102 98 90 96 111 121 132 145 142 142 142 147
357 5 7 6 3 4 5 7 11 2 4 4 359 10 19 345 104 156 163 177 165 173 228 280 355 5 25 40 73 85 97 101 98 96 101 109 117 116 124 124 134 141 142
10 10 11 9 7 9 10 12 7 6 16 8 4 27 27 11 23 85 144 160 168 163 174 156 0 17 29 59 77 79 97 102 96 99 112 121 126 127 131 135 143 147 155
15 13 6 5 8 10 6 11 12 15 22 14 14 26 24 20 29 25 71 102 120 138 153 92 41 59 70 73 59 56 73 77 90 95 113 135 145 147 152 156 156 161 167
15 9 6 10 10 11 8 13 14 19 23 16 11 21 20 24 26 21 47 76 118 141 146 142 90 66 76 99 79 61 49 64 71 90 106 131 153 153 156 160 171 181 175
17 13 13 14 10 9 11 11 19 23 22 15 9 14 15 32 25 17 45 82 103 116 127 136 122 85 77 103 90 68 51 28 31 101 133 142 149 159 169 179 188 199 204
22 17 15 14 10 11 13 9 17 23 21 16 13 12 9 18 17 16 58 106 109 105 113 122 120 106 85 79 97 85 57 22 18 43 67 88 123 168 196 213 213 213 216
26 18 19 16 9 9 8 5 11 21 20 14 14 13 14 24 31 30 100 143 132 123 125 128 130 123 121 120 108 87 86 40 20 33 44 36 67 246 246 232 230 223 223
21 22 20 14 11 8 7 12 19 26 23 20 13 10 15 29 28 29 47 101 141 150 148 142 147 153 163 153 128 123 111 67 16 30 24 337 45 258 256 246 233 233 232
20 19 13 16 11 4 13 22 31 43 38 30 23 18 21 21 25 36 51 61 66 86 146 159 160 168 168 172 148 134 131 108 246 250 123 295 297 265 260 250 242 246 247
22 14 8 11 10 5 13 26 38 48 43 31 25 24 26 21 27 39 56 57 51 49 63 120 158 168 169 174 167 154 142 109 313 260 201 248 285 283 292 272 252 246 247
22 17 10 13 12 2 9 21 36 42 40 30 26 29 29 33 27 43 62 62 53 42 52 66 88 119 156 182 170 142 138 121 356 305 195 228 260 289 289 277 268 258 257
26 22 22 16 14 8 9 21 31 43 39 25 20 22 28 30 26 36 55 63 53 32 31 39 50 53 73 103 170 181 178 172 193 251 199 203 232 265 284 269 273 271 265